TimeCST,TemperatureF,Dew PointF,Humidity,Sea Level PressureIn,VisibilityMPH,Wind Direction,Wind SpeedMPH,Gust SpeedMPH,PrecipitationIn,Events,Conditions,WindDirDegrees,DateUTC
12:53 AM,52.0,39.9,63,30.17,10.0,North,4.6,-,N/A,,Clear,10,2013-11-19 06:53:00
1:53 AM,52.0,39.9,63,30.15,10.0,NNE,4.6,-,N/A,,Clear,30,2013-11-19 07:53:00
2:53 AM,53.1,37.9,57,30.15,10.0,NE,5.8,-,N/A,,Clear,40,2013-11-19 08:53:00
3:53 AM,54.0,36.0,51,30.15,10.0,NE,8.1,-,N/A,,Clear,50,2013-11-19 09:53:00
4:53 AM,54.0,36.0,51,30.15,10.0,ENE,4.6,-,N/A,,Clear,60,2013-11-19 10:53:00
5:53 AM,53.1,36.0,52,30.17,10.0,ENE,8.1,-,N/A,,Clear,60,2013-11-19 11:53:00
6:53 AM,52.0,36.0,54,30.18,10.0,ENE,4.6,-,N/A,,Clear,70,2013-11-19 12:53:00
7:53 AM,52.0,37.0,57,30.20,10.0,Variable,4.6,-,N/A,,Clear,0,2013-11-19 13:53:00
8:53 AM,55.0,35.1,47,30.22,10.0,NE,10.4,-,N/A,,Clear,50,2013-11-19 14:53:00
9:53 AM,57.9,33.1,39,30.21,10.0,ENE,12.7,17.3,N/A,,Clear,70,2013-11-19 15:53:00
10:53 AM,60.1,28.9,31,30.21,10.0,East,12.7,-,N/A,,Clear,90,2013-11-19 16:53:00
11:53 AM,62.1,28.0,28,30.18,10.0,ENE,10.4,-,N/A,,Clear,60,2013-11-19 17:53:00
12:53 PM,64.0,24.1,22,30.14,10.0,East,10.4,16.1,N/A,,Clear,80,2013-11-19 18:53:00
1:53 PM,66.0,27.0,23,30.11,10.0,NE,9.2,-,N/A,,Clear,50,2013-11-19 19:53:00
2:53 PM,66.0,23.0,20,30.09,10.0,East,8.1,-,N/A,,Clear,80,2013-11-19 20:53:00
3:53 PM,64.9,23.0,20,30.08,10.0,NNE,8.1,-,N/A,,Clear,30,2013-11-19 21:53:00
4:53 PM,61.0,25.0,25,30.10,10.0,NNE,8.1,-,N/A,,Clear,20,2013-11-19 22:53:00
5:53 PM,57.0,24.1,28,30.10,10.0,NE,4.6,-,N/A,,Clear,40,2013-11-19 23:53:00
6:53 PM,53.1,30.9,43,30.12,10.0,North,3.5,-,N/A,,Clear,10,2013-11-20 00:53:00
7:53 PM,52.0,28.9,41,30.12,10.0,NNE,5.8,-,N/A,,Clear,30,2013-11-20 01:53:00
8:53 PM,50.0,30.9,48,30.12,10.0,NE,5.8,-,N/A,,Clear,50,2013-11-20 02:53:00
9:53 PM,48.9,30.9,50,30.12,10.0,NE,4.6,-,N/A,,Clear,40,2013-11-20 03:53:00
10:53 PM,48.0,30.9,52,30.12,10.0,ENE,4.6,-,N/A,,Clear,60,2013-11-20 04:53:00
11:53 PM,46.9,30.9,54,30.11,10.0,ENE,4.6,-,N/A,,Clear,70,2013-11-20 05:53:00